Hurlburt Field, FL

8:06 AM CST on January 24, 2017 (GMT -0600)
Hurlburt

Weather History for KHRT - March, 2014

Change the Weather History Date:

Tuesday, March 4, 2014

  Actual Average Record
Temperature  
Mean Temperature 41 °F -  
Max Temperature 46 °F 65 °F 75 °F (1997)
Min Temperature 36 °F 47 °F 26 °F (2002)
Degree Days  
Heating Degree Days 24    
Moisture  
Dew Point 33 °F    
Average Humidity 67    
Maximum Humidity 87    
Minimum Humidity 56    
Precipitation  
Precipitation 0.06 in - - ()
Sea Level Pressure  
Sea Level Pressure 30.11 in    
Wind  
Wind Speed 9 mph (NNE)    
Max Wind Speed 16 mph    
Max Gust Speed -    
Visibility 10 miles    
Events Rain    
Averages and records for this station are not official NWS values.
T = Trace of Precipitation, MM = Missing Value Source: NWS Daily Summary

Daily Weather History Graph

Daily Weather History Graph

Search for Another Location

Airport or City:

Trip Planner

Search our weather history database for the weather conditions in past years. The results will help you decide how hot, cold, wet, or windy it might be!

Date:

Astronomy

Mar. 04, 2014 Rise Set
Actual Time 6:09 AM CST 5:47 PM CST
Civil Twilight 5:45 AM CST 6:11 PM CST
Nautical Twilight 5:17 AM CST 6:39 PM CST
Astronomical Twilight 4:49 AM CST 7:07 PM CST
Moon 8:12 AM CST (3/4) 9:35 PM CST (3/4)
Length of Visible Light 12h 26m
Length of Day
11h 38m
Waxing Crescent, 15% of the Moon is Illuminated
Mar 4
Waxing Crescent
Mar 8
First Quarter
Mar 16
Full
Mar 23
Last Quarter
Mar 30
New

Hourly Weather History & Observations

Time (CST) Temp. Windchill Dew Point Humidity Pressure Visibility Wind Dir Wind Speed Gust Speed Precip Events Conditions
12:23 AM 37.4 °F 28.2 °F 28.4 °F 70% 30.12 in 10.0 mi NNE 16.1 mph - N/A   Overcast
12:58 AM 37.6 °F 28.8 °F 28.8 °F 70% 30.12 in 10.0 mi NNE 15.0 mph - N/A   Overcast
1:58 AM 37.2 °F 30.6 °F 28.4 °F 70% 30.12 in 10.0 mi North 9.2 mph - N/A   Overcast
2:58 AM 37.4 °F 30.3 °F 28.8 °F 71% 30.11 in 10.0 mi NNE 10.4 mph - N/A   Overcast
3:58 AM 37.2 °F 30.0 °F 28.4 °F 70% 30.12 in 10.0 mi North 10.4 mph - N/A   Overcast
4:58 AM 37.2 °F 30.6 °F 28.4 °F 70% 30.13 in 10.0 mi NNE 9.2 mph - N/A   Overcast
5:58 AM 36.9 °F 30.1 °F 28.0 °F 70% 30.14 in 10.0 mi NNE 9.2 mph - N/A   Overcast
6:58 AM 37.0 °F 30.4 °F 27.9 °F 69% 30.13 in 10.0 mi NNE 9.2 mph - N/A   Overcast
7:56 AM 39.2 °F 33.6 °F 35.6 °F 87% 30.11 in 10.0 mi NNE 8.1 mph - N/A   Overcast
7:58 AM - - - N/A% - - North - - N/A   Overcast
8:13 AM 37.4 °F 31.4 °F 28.4 °F 70% 30.15 in - NE 8.1 mph - N/A   Overcast
8:28 AM 39.2 °F 35.9 °F 28.4 °F 65% 30.16 in 10.0 mi ENE 4.6 mph - N/A   Overcast
8:45 AM 39.2 °F 37.0 °F 28.4 °F 65% 30.16 in 10.0 mi ENE 3.5 mph - N/A   Overcast
8:58 AM 39.7 °F 35.6 °F 28.8 °F 65% 30.16 in 10.0 mi NNE 5.8 mph - 0.00 in   Overcast
9:55 AM 42.8 °F 37.5 °F 30.2 °F 61% 30.14 in 10.0 mi North 9.2 mph - N/A   Mostly Cloudy
10:25 AM 42.8 °F 39.3 °F 30.2 °F 61% 30.16 in 10.0 mi North 5.8 mph - N/A   Mostly Cloudy
10:55 AM 44.6 °F 42.2 °F 32.0 °F 61% 30.16 in 10.0 mi North 4.6 mph - N/A   Mostly Cloudy
11:47 AM 44.6 °F 43.1 °F 32.0 °F 61% 30.15 in 10.0 mi Variable 3.5 mph - N/A   Light Drizzle
11:58 AM 46.0 °F - 31.1 °F 56% 30.16 in 10.0 mi Variable 2.3 mph - 0.00 in Rain Light Rain
12:07 PM 46.4 °F 43.5 °F 32.0 °F 57% 30.15 in 10.0 mi NNE 5.8 mph - N/A   Overcast
12:37 PM 46.4 °F 42.9 °F 32.0 °F 57% 30.13 in 10.0 mi North 6.9 mph - N/A   Mostly Cloudy
12:42 PM 46.4 °F 42.9 °F 32.0 °F 57% 30.13 in 10.0 mi North 6.9 mph - N/A   Mostly Cloudy
12:44 PM 46.4 °F 43.5 °F 32.0 °F 57% 30.13 in 10.0 mi NNE 5.8 mph - N/A Rain Light Rain
12:58 PM 45.9 °F 41.7 °F 31.5 °F 57% 30.13 in 10.0 mi North 8.1 mph - 0.00 in Rain Light Rain
1:27 PM 46.4 °F 42.9 °F 32.0 °F 57% 30.12 in 10.0 mi NNW 6.9 mph - N/A   Overcast
1:36 PM 46.4 °F 42.4 °F 32.0 °F 57% 30.12 in 10.0 mi North 8.1 mph - N/A Rain Light Rain
1:46 PM 46.4 °F 41.9 °F 32.0 °F 57% 30.12 in 10.0 mi NNW 9.2 mph - N/A   Overcast
1:58 PM 46.2 °F 41.7 °F 32.2 °F 58% 30.12 in 10.0 mi North 9.2 mph - 0.00 in   Overcast
2:11 PM 46.4 °F 40.7 °F 32.0 °F 57% 30.09 in 10.0 mi NNE 12.7 mph - N/A   Light Drizzle
2:31 PM 46.4 °F 41.5 °F 32.0 °F 57% 30.10 in 10.0 mi North 10.4 mph - N/A   Mostly Cloudy
2:33 PM 46.4 °F 41.9 °F 32.0 °F 57% 30.10 in 10.0 mi NNE 9.2 mph - N/A Rain Light Rain
2:42 PM 46.4 °F 41.9 °F 32.0 °F 57% 30.09 in 10.0 mi NNE 9.2 mph - N/A   Overcast
2:58 PM 45.7 °F 41.5 °F 32.5 °F 60% 30.10 in 10.0 mi NNE 8.1 mph - 0.00 in   Overcast
3:53 PM 46.4 °F 41.9 °F 33.8 °F 62% 30.09 in 10.0 mi North 9.2 mph - N/A   Light Drizzle
3:58 PM 45.7 °F 39.5 °F 33.8 °F 63% 30.08 in 10.0 mi NNE 13.8 mph - 0.00 in   Light Drizzle
4:03 PM 44.6 °F 42.2 °F 33.8 °F 66% 30.10 in 10.0 mi NE 4.6 mph - N/A   Light Drizzle
4:08 PM 44.6 °F 41.4 °F 33.8 °F 66% 30.11 in 10.0 mi NNE 5.8 mph - N/A   Mostly Cloudy
4:30 PM 46.4 °F 41.9 °F 33.8 °F 62% 30.08 in 10.0 mi NE 9.2 mph - N/A   Light Drizzle
4:46 PM 44.6 °F 40.2 °F 33.8 °F 66% 30.09 in 10.0 mi NNE 8.1 mph - N/A   Overcast
4:58 PM 45.0 °F 41.8 °F 34.5 °F 67% 30.10 in 10.0 mi NE 5.8 mph - 0.00 in   Overcast
5:18 PM 44.6 °F 41.4 °F 35.6 °F 71% 30.10 in 10.0 mi NNE 5.8 mph - N/A   Light Drizzle
5:23 PM 44.6 °F 40.7 °F 35.6 °F 71% 30.09 in 10.0 mi NE 6.9 mph - N/A   Light Drizzle
5:58 PM 44.2 °F 39.7 °F 35.2 °F 71% 30.07 in 10.0 mi ENE 8.1 mph - 0.00 in   Light Drizzle
6:35 PM 44.6 °F 40.7 °F 35.6 °F 71% 30.08 in 10.0 mi NNE 6.9 mph - N/A   Scattered Clouds
6:49 PM 44.6 °F 39.7 °F 35.6 °F 71% 30.06 in 10.0 mi NNE 9.2 mph - N/A   Light Drizzle
6:58 PM 43.7 °F 39.7 °F 35.6 °F 73% 30.07 in 10.0 mi NNE 6.9 mph - 0.00 in   Light Drizzle
7:53 PM 44.6 °F 39.7 °F 35.6 °F 71% 30.06 in 10.0 mi North 9.2 mph - N/A   Overcast
7:58 PM 43.9 °F 39.3 °F 36.3 °F 75% 30.07 in 10.0 mi NNE 8.1 mph - 0.00 in   Overcast
8:00 PM 44.6 °F 40.2 °F 37.4 °F 76% 30.07 in 10.0 mi North 8.1 mph - N/A   Light Drizzle
8:05 PM 44.6 °F 40.2 °F 37.4 °F 76% 30.07 in 10.0 mi NNE 8.1 mph - N/A   Light Drizzle
8:58 PM 44.6 °F 39.7 °F 37.2 °F 75% 30.10 in 10.0 mi North 9.2 mph - 0.00 in   Light Drizzle
9:58 PM 44.1 °F 39.5 °F 38.3 °F 80% 30.11 in 6.0 mi North 8.1 mph - 0.02 in Rain Rain
10:13 PM 44.6 °F 42.2 °F 39.2 °F 81% 30.09 in 9.0 mi NE 4.6 mph - N/A Rain Light Rain
10:48 PM 44.6 °F 39.7 °F 39.2 °F 81% 30.07 in 8.0 mi NNE 9.2 mph - N/A Rain Light Rain
10:58 PM 43.7 °F 40.3 °F 38.8 °F 83% 30.08 in 8.0 mi NE 5.8 mph - 0.03 in Rain Light Rain
11:58 PM 44.6 °F 43.1 °F 39.7 °F 83% 30.11 in 7.0 mi NNE 3.5 mph - 0.01 in Rain Light Rain